PDT,Max TemperatureF,Mean TemperatureF,Min TemperatureF,Max Dew PointF,MeanDew PointF,Min DewpointF,Max Humidity, Mean Humidity, Min Humidity, Max Sea Level PressureIn, Mean Sea Level PressureIn, Min Sea Level PressureIn, Max VisibilityMiles, Mean VisibilityMiles, Min VisibilityMiles, Max Wind SpeedMPH, Mean Wind SpeedMPH, Max Gust SpeedMPH,PrecipitationIn, CloudCover, Events, WindDirDegrees
2013-7-1,96,77,57,61,54,38,93,52,13,30.01,29.93,29.88,10,10,10,18,5,22,0.00,0,,308
2013-7-2,101,79,57,62,54,42,90,48,15,30.04,30.00,29.95,10,10,10,20,7,25,T,1,Rain,350
2013-7-3,96,79,61,59,54,47,84,47,20,30.04,29.98,29.89,10,10,10,23,7,28,0.00,0,,20
2013-7-4,88,71,54,55,49,43,93,50,21,29.99,29.89,29.80,10,10,10,22,7,25,0.00,1,,311
2013-7-5,86,68,49,50,42,23,83,42,10,29.84,29.79,29.73,10,10,10,20,8,22,0.00,0,,319
2013-7-6,87,70,52,51,44,37,77,43,18,29.83,29.77,29.70,10,10,10,22,6,26,0.00,0,,343
2013-7-7,87,68,49,52,49,44,93,53,23,29.87,29.81,29.75,10,10,10,20,4,23,0.00,0,,300
2013-7-8,88,69,50,55,48,39,89,52,18,30.01,29.93,29.87,10,10,10,15,2,17,0.00,0,,198
2013-7-9,90,70,50,52,39,28,86,40,12,30.12,30.02,29.98,10,10,10,21,5,28,0.00,0,,165
2013-7-10,89,70,50,53,42,32,80,43,15,30.15,29.96,29.82,10,9,2,15,4,18,0.00,0,,164
2013-7-11,86,68,50,52,44,30,89,47,13,29.90,29.86,29.81,10,10,9,20,6,23,0.00,0,,319
2013-7-12,83,64,45,48,41,30,86,47,15,29.96,29.89,29.85,10,10,10,23,8,29,0.00,0,,289
2013-7-13,85,65,45,48,42,39,80,46,22,30.01,29.97,29.90,10,10,10,21,5,24,0.00,0,,4
2013-7-14,89,69,49,49,40,26,86,42,16,30.04,29.98,29.89,10,10,10,13,2,20,0.00,0,,255
2013-7-15,89,68,47,51,43,34,83,45,16,29.94,29.85,29.74,10,10,8,10,3,15,0.00,0,,169
2013-7-16,85,70,54,51,38,20,83,39,10,29.97,29.84,29.79,10,10,10,25,8,33,0.00,1,,177
2013-7-17,86,65,44,48,39,28,80,44,13,30.12,30.06,29.99,10,10,10,13,3,22,0.00,0,,175
2013-7-18,92,70,47,53,43,28,86,46,10,30.11,30.04,29.96,10,10,10,20,5,23,0.00,0,,315
2013-7-19,96,73,50,53,45,30,96,44,10,30.02,29.95,29.88,10,10,10,20,5,24,0.00,0,,321
2013-7-20,96,74,51,53,45,35,89,44,13,29.94,29.88,29.81,10,10,10,20,6,23,0.00,0,,329
2013-7-21,98,74,49,52,44,27,86,43,8,29.88,29.84,29.78,10,10,10,23,6,26,0.00,0,,23
2013-7-22,96,74,52,53,45,33,86,42,11,29.93,29.89,29.85,10,10,10,20,5,23,0.00,0,,317
2013-7-23,95,74,53,54,45,33,89,41,14,30.04,29.96,29.89,10,10,10,21,5,24,0.00,0,,329
2013-7-24,86,72,57,55,49,33,80,48,16,30.01,29.98,29.95,10,10,7,15,3,20,0.00,3,,295
2013-7-25,95,75,55,56,47,36,86,42,13,30.03,29.98,29.92,10,10,10,20,4,24,0.00,1,,273
2013-7-26,88,72,56,59,52,46,78,49,29,30.20,30.05,29.98,10,10,10,17,4,24,0.00,2,Thunderstorm,100
2013-7-27,90,71,52,54,47,37,93,49,18,30.06,29.97,29.86,10,9,4,20,6,24,0.00,0,,328
2013-7-28,86,67,47,48,37,25,86,42,11,29.91,29.87,29.81,10,9,5,17,6,23,0.00,0,,304
2013-7-29,85,65,45,47,42,34,93,49,16,29.99,29.89,29.85,10,9,3,17,3,21,0.00,1,,273
2013-7-30,85,66,46,48,41,32,82,49,16,30.19,30.08,30.00,10,4,2,17,3,21,0.00,6,,173
2013-7-31,82,69,55,51,46,32,83,52,17,30.17,30.05,29.91,9,3,1,21,6,23,T,5,Thunderstorm,274